Location: Newark
(44.9861°N, 0.2536°E)
Time: 19:56:52
(UTC+00:00)

HuskySat-1 - Pass Details

Date: 14 July 2020
Orbit: 457 x 471 km, 51.6° (Epoch: 11 August)

Event Time Altitude Azimuth Distance (km) Brightness Sun altitude
Exits shadow 23:11:13 31° 63° (ENE) 836 ? -22.4°
Drops below altitude 10° 23:13:14 10° 61° (ENE) 1,615 ? -22.5°
Sets 23:15:23 0° 61° (ENE) 2,490 ? -22.6°
